Imperial, NE

2:51 PM MST on January 17, 2017 (GMT -0700)
Imperial Municipal

Weather History for KIML - April, 2013

Change the Weather History Date:

Thursday, April 25, 2013

  Actual Average Record
Temperature  
Mean Temperature 50 °F 52 °F  
Max Temperature 73 °F 65 °F 91 °F (1949)
Min Temperature 26 °F 38 °F 22 °F (1931)
Degree Days  
Heating Degree Days 15 13  
Month to date heating degree days 588 436  
Cooling Degree Days 0 0  
Month to date cooling degree days 0 0  
Year to date cooling degree days 0 0  
Moisture  
Dew Point 26 °F    
Average Humidity 46    
Maximum Humidity 75    
Minimum Humidity 16    
Precipitation  
Precipitation 0.00 in 0.08 in 1.20 in (1915)
Sea Level Pressure  
Sea Level Pressure 30.03 in    
Wind  
Wind Speed 11 mph (SSW)    
Max Wind Speed 26 mph    
Max Gust Speed 36 mph    
Visibility 10 miles    
Events      
T = Trace of Precipitation, MM = Missing Value Source: NWS Daily Summary

Daily Weather History Graph

Daily Weather History Graph

Search for Another Location

Airport or City:

Trip Planner

Search our weather history database for the weather conditions in past years. The results will help you decide how hot, cold, wet, or windy it might be!

Date:

Astronomy

Apr. 25, 2013 Rise Set
Actual Time 5:53 AM MDT 7:36 PM MDT
Civil Twilight 5:24 AM MDT 8:05 PM MDT
Nautical Twilight 4:48 AM MDT 8:40 PM MDT
Astronomical Twilight 4:11 AM MDT 9:18 PM MDT
Moon 7:51 PM MDT (4/25) 5:37 AM MDT (4/25)
Length of Visible Light 14h 41m
Length of Day
13h 43m
Full, 100% of the Moon is Illuminated
Apr 25
Full
Apr 25
Full
May 2
Last Quarter
May 9
New
May 17
First Quarter

Hourly Weather History & Observations

Time (MDT) Temp. Windchill Dew Point Humidity Pressure Visibility Wind Dir Wind Speed Gust Speed Precip Events Conditions
12:53 AM 32.0 °F - 21.9 °F 66% 30.24 in 10.0 mi Calm Calm - N/A   Clear
1:53 AM 32.0 °F 25.6 °F 21.9 °F 66% 30.23 in 10.0 mi South 6.9 mph - N/A   Clear
2:53 AM 28.9 °F - 21.0 °F 72% 30.22 in 10.0 mi Calm Calm - N/A   Clear
3:53 AM 28.9 °F - 21.0 °F 72% 30.21 in 10.0 mi Calm Calm - N/A   Clear
4:53 AM 28.9 °F 21.1 °F 21.0 °F 72% 30.21 in 10.0 mi South 8.1 mph - N/A   Unknown
5:53 AM 32.0 °F - 21.9 °F 66% 30.18 in 10.0 mi North - - N/A   Unknown
6:53 AM 35.1 °F 29.3 °F 24.1 °F 64% 30.17 in 10.0 mi SSW 6.9 mph - N/A   Clear
7:53 AM 41.0 °F 34.7 °F 27.0 °F 57% 30.17 in 10.0 mi SSW 10.4 mph - N/A   Clear
8:53 AM 48.9 °F - 27.0 °F 43% 30.13 in 10.0 mi South 6.9 mph - N/A   Clear
9:53 AM 57.0 °F - 26.1 °F 30% 30.10 in 10.0 mi South 12.7 mph - N/A   Clear
10:53 AM 62.1 °F - 27.0 °F 26% 30.07 in 10.0 mi SSW 12.7 mph - N/A   Clear
11:53 AM 66.0 °F - 28.9 °F 25% 30.04 in 10.0 mi South 15.0 mph 23.0 mph N/A   Clear
12:53 PM 69.1 °F - 28.9 °F 22% 29.98 in 8.0 mi SSW 19.6 mph 33.4 mph N/A   Clear
1:53 PM 70.0 °F - 30.0 °F 23% 29.95 in 10.0 mi South 19.6 mph 29.9 mph N/A   Clear
2:53 PM 71.1 °F - 30.9 °F 23% 29.92 in 10.0 mi SW 21.9 mph 28.8 mph N/A   Clear
3:53 PM 71.1 °F - 30.0 °F 22% 29.88 in 10.0 mi WSW 15.0 mph 23.0 mph N/A   Clear
4:53 PM 72.0 °F - 27.0 °F 19% 29.85 in 10.0 mi WSW 12.7 mph - N/A   Clear
5:53 PM 70.0 °F - 21.9 °F 16% 29.85 in 10.0 mi West 11.5 mph - N/A   Clear
6:53 PM 66.9 °F - 21.9 °F 18% 29.86 in 10.0 mi West 8.1 mph - N/A   Clear
7:53 PM 61.0 °F - 23.0 °F 23% 29.87 in 10.0 mi NW 8.1 mph - N/A   Clear
8:53 PM 53.1 °F - 26.1 °F 35% 29.91 in 10.0 mi SSE 5.8 mph - N/A   Clear
9:53 PM 57.0 °F - 32.0 °F 39% 29.92 in 10.0 mi South 11.5 mph - N/A   Clear
10:53 PM 51.1 °F - 33.1 °F 50% 29.91 in 10.0 mi South 9.2 mph - N/A   Clear
11:53 PM 53.1 °F - 34.0 °F 48% 29.91 in 10.0 mi SSW 10.4 mph - N/A   Clear